When you browse on this site, cookies collect data to enhance your experience and personalize the content and advertising you see.
Visit our Privacy Policy to learn more. By continuing to use the site, you agree to this use of cookies and data.
  • In Schweiz
  • Länderverzeichnis
  • Für 7 Tage
  • Wassertemperatur
  • Wetterkarte
  • Widgets
  • user-avatar
    Anmelden

    Stündliche Wetter Bojsi

    Heute, 11 Dezember, Mittwoch

    Zeit Temperatur Niederschläge Wind Luftdruck Luftfeuchtigkeit
    00:00 +2°C° 0 mm 2 m/S 689 mmHg 66%
    01:00 +3°C° 0 mm 1 m/S 688 mmHg 67%
    02:00 +3°C° 0 mm 1 m/S 688 mmHg 68%
    03:00 +2°C° 0 mm 1 m/S 688 mmHg 69%
    04:00 +2°C° 0 mm 1 m/S 689 mmHg 69%
    05:00 +2°C° 0 mm 1 m/S 689 mmHg 70%
    06:00 +2°C° 0 mm 1 m/S 689 mmHg 71%
    07:00 +2°C° 0 mm 1 m/S 689 mmHg 72%
    08:00 +2°C° 0.1 mm 2 m/S 689 mmHg 76%
    09:00 +2°C° 0.1 mm 2 m/S 690 mmHg 79%
    10:00 +3°C° 0.1 mm 2 m/S 690 mmHg 82%
    11:00 +4°C° 0 mm 2 m/S 690 mmHg 80%
    12:00 +5°C° 0 mm 2 m/S 689 mmHg 77%
    13:00 +6°C° 0 mm 1 m/S 689 mmHg 75%
    14:00 +6°C° 0 mm 1 m/S 689 mmHg 78%
    15:00 +4°C° 0 mm 2 m/S 689 mmHg 81%
    16:00 +4°C° 0 mm 2 m/S 689 mmHg 84%
    17:00 +4°C° 0 mm 2 m/S 689 mmHg 84%
    18:00 +4°C° 0 mm 2 m/S 689 mmHg 84%
    19:00 +4°C° 0 mm 2 m/S 689 mmHg 83%
    20:00 +4°C° 0.1 mm 2 m/S 689 mmHg 83%
    21:00 +4°C° 0.1 mm 2 m/S 689 mmHg 83%
    22:00 +4°C° 0.1 mm 3 m/S 688 mmHg 83%
    23:00 +3°C° 0.6 mm 3 m/S 688 mmHg 86%

    Morgen, 12 Dezember, Donnerstag

    Zeit Temperatur Niederschläge Wind Luftdruck Luftfeuchtigkeit
    00:00 +3°C° 0.6 mm 3 m/S 688 mmHg 89%
    01:00 +3°C° 0.6 mm 4 m/S 687 mmHg 91%
    02:00 +3°C° 0.3 mm 3 m/S 687 mmHg 91%
    03:00 +4°C° 0.3 mm 3 m/S 687 mmHg 90%
    04:00 +4°C° 0.3 mm 3 m/S 687 mmHg 90%
    05:00 +4°C° 0.7 mm 3 m/S 687 mmHg 91%
    06:00 +5°C° 0.7 mm 2 m/S 687 mmHg 92%
    07:00 +5°C° 0.7 mm 2 m/S 687 mmHg 94%
    08:00 +5°C° 2 mm 2 m/S 687 mmHg 94%
    09:00 +5°C° 2 mm 2 m/S 687 mmHg 94%
    10:00 +5°C° 2 mm 2 m/S 687 mmHg 94%
    11:00 +6°C° 0.4 mm 2 m/S 687 mmHg 91%
    12:00 +6°C° 0.4 mm 2 m/S 687 mmHg 89%
    13:00 +7°C° 0.4 mm 2 m/S 687 mmHg 87%
    14:00 +6°C° 0.7 mm 2 m/S 687 mmHg 88%
    15:00 +6°C° 0.7 mm 2 m/S 687 mmHg 90%
    16:00 +6°C° 0.7 mm 2 m/S 687 mmHg 91%
    17:00 +6°C° 0.2 mm 2 m/S 688 mmHg 90%
    18:00 +6°C° 0.2 mm 2 m/S 688 mmHg 89%
    19:00 +6°C° 0.2 mm 2 m/S 688 mmHg 87%
    20:00 +6°C° 0 mm 1 m/S 688 mmHg 87%
    21:00 +5°C° 0 mm 1 m/S 688 mmHg 87%
    22:00 +4°C° 0 mm 1 m/S 688 mmHg 88%
    23:00 +5°C° 0.3 mm 1 m/S 688 mmHg 89%

    übermorgen, 13 Dezember, Freitag

    Zeit Temperatur Niederschläge Wind Luftdruck Luftfeuchtigkeit
    00:00 +4°C° 0.3 mm 2 m/S 688 mmHg 90%
    01:00 +4°C° 0.3 mm 2 m/S 688 mmHg 91%
    02:00 +4°C° 1.3 mm 2 m/S 687 mmHg 92%
    03:00 +2°C° 1.3 mm 3 m/S 686 mmHg 94%
    04:00 +2°C° 1.3 mm 3 m/S 686 mmHg 95%
    05:00 +3°C° 0.5 mm 2 m/S 686 mmHg 95%
    06:00 +4°C° 0.5 mm 2 m/S 686 mmHg 96%
    07:00 +5°C° 0.5 mm 1 m/S 685 mmHg 96%
    08:00 +5°C° 0.1 mm 1 m/S 686 mmHg 93%
    09:00 +5°C° 0.1 mm 2 m/S 686 mmHg 90%
    10:00 +5°C° 0.1 mm 2 m/S 686 mmHg 87%
    11:00 +5°C° 0.1 mm 3 m/S 686 mmHg 81%
    12:00 +5°C° 0.1 mm 3 m/S 686 mmHg 76%
    13:00 +5°C° 0.1 mm 4 m/S 686 mmHg 71%
    14:00 +4°C° 0 mm 3 m/S 686 mmHg 71%
    15:00 +3°C° 0 mm 3 m/S 686 mmHg 71%
    16:00 +4°C° 0 mm 2 m/S 686 mmHg 72%
    17:00 +3°C° 0 mm 2 m/S 686 mmHg 72%
    18:00 +3°C° 0 mm 1 m/S 686 mmHg 73%
    19:00 +2°C° 0 mm 1 m/S 686 mmHg 73%
    20:00 +2°C° 0 mm 1 m/S 686 mmHg 74%
    21:00 +2°C° 0 mm 1 m/S 686 mmHg 75%
    22:00 +1°C° 0 mm 1 m/S 686 mmHg 76%
    23:00 +1°C° 0 mm 1 m/S 686 mmHg 77%

    14 Dezember, Samstag

    Zeit Temperatur Niederschläge Wind Luftdruck Luftfeuchtigkeit
    00:00 +1°C° 0 mm 1 m/S 686 mmHg 77%
    01:00 0°C° 0 mm 1 m/S 686 mmHg 78%
    02:00 0°C° 0 mm 1 m/S 686 mmHg 78%
    03:00 0°C° 0 mm 1 m/S 686 mmHg 78%
    04:00 0°C° 0 mm 1 m/S 685 mmHg 78%
    05:00 0°C° 0 mm 1 m/S 685 mmHg 77%
    06:00 0°C° 0 mm 1 m/S 685 mmHg 76%
    07:00 0°C° 0 mm 1 m/S 685 mmHg 76%
    08:00 +1°C° 0 mm 1 m/S 685 mmHg 75%
    09:00 +1°C° 0 mm 2 m/S 685 mmHg 73%
    10:00 +2°C° 0 mm 2 m/S 685 mmHg 72%
    11:00 +3°C° 0.2 mm 1 m/S 685 mmHg 77%
    12:00 +3°C° 0.2 mm 1 m/S 684 mmHg 81%
    13:00 +3°C° 0.2 mm 1 m/S 683 mmHg 86%
    14:00 +3°C° 0.1 mm 1 m/S 683 mmHg 87%
    15:00 +2°C° 0.1 mm 1 m/S 683 mmHg 89%
    16:00 +1°C° 0.1 mm 1 m/S 683 mmHg 90%
    17:00 +1°C° 0 mm 1 m/S 683 mmHg 90%
    18:00 0°C° 0 mm 1 m/S 683 mmHg 90%
    19:00 0°C° 0 mm 1 m/S 683 mmHg 90%
    20:00 0°C° 0 mm 1 m/S 683 mmHg 89%
    21:00 0°C° 0 mm 1 m/S 683 mmHg 88%
    22:00 -1°C° 0 mm 1 m/S 683 mmHg 87%
    23:00 -1°C° 0 mm 1 m/S 683 mmHg 85%

    15 Dezember, Sonntag

    Zeit Temperatur Niederschläge Wind Luftdruck Luftfeuchtigkeit
    00:00 -1°C° 0 mm 1 m/S 683 mmHg 84%
    01:00 -1°C° 0 mm 1 m/S 683 mmHg 82%
    02:00 -1°C° 0 mm 1 m/S 684 mmHg 82%
    03:00 -2°C° 0 mm 1 m/S 684 mmHg 81%
    04:00 -2°C° 0 mm 1 m/S 684 mmHg 81%
    05:00 -2°C° 0 mm 1 m/S 685 mmHg 81%
    06:00 -2°C° 0 mm 1 m/S 685 mmHg 81%
    07:00 -3°C° 0 mm 1 m/S 686 mmHg 81%
    08:00 -1°C° 0 mm 1 m/S 686 mmHg 78%
    09:00 0°C° 0 mm 1 m/S 686 mmHg 75%
    10:00 0°C° 0 mm 0 m/S 687 mmHg 72%
    11:00 +2°C° 0 mm 1 m/S 686 mmHg 70%
    12:00 +2°C° 0 mm 1 m/S 686 mmHg 68%
    13:00 +3°C° 0 mm 1 m/S 686 mmHg 66%
    14:00 +2°C° 0 mm 1 m/S 686 mmHg 71%
    15:00 +1°C° 0 mm 1 m/S 686 mmHg 75%
    16:00 -2°C° 0 mm 0 m/S 686 mmHg 79%
    17:00 -1°C° 0 mm 1 m/S 686 mmHg 79%
    18:00 -1°C° 0 mm 1 m/S 687 mmHg 79%
    19:00 -1°C° 0 mm 1 m/S 687 mmHg 79%
    20:00 -1°C° 0 mm 1 m/S 688 mmHg 78%
    21:00 -1°C° 0 mm 1 m/S 688 mmHg 77%
    22:00 -4°C° 0 mm 2 m/S 688 mmHg 76%
    23:00 -4°C° 0 mm 2 m/S 688 mmHg 76%

    16 Dezember, Montag

    Zeit Temperatur Niederschläge Wind Luftdruck Luftfeuchtigkeit
    00:00 -4°C° 0 mm 2 m/S 689 mmHg 75%
    01:00 -2°C° 0 mm 1 m/S 689 mmHg 75%
    02:00 -2°C° 0 mm 1 m/S 689 mmHg 76%
    03:00 -3°C° 0 mm 1 m/S 689 mmHg 76%
    04:00 -3°C° 0 mm 1 m/S 689 mmHg 77%
    05:00 -3°C° 0 mm 1 m/S 689 mmHg 77%
    06:00 -3°C° 0 mm 1 m/S 690 mmHg 77%
    07:00 -3°C° 0 mm 1 m/S 690 mmHg 78%
    08:00 -2°C° 0 mm 1 m/S 690 mmHg 73%
    09:00 -1°C° 0 mm 1 m/S 691 mmHg 67%
    10:00 +1°C° 0 mm 1 m/S 691 mmHg 62%
    11:00 +2°C° 0 mm 1 m/S 691 mmHg 60%
    12:00 +2°C° 0 mm 1 m/S 690 mmHg 58%
    13:00 +2°C° 0 mm 0 m/S 690 mmHg 57%
    14:00 +1°C° 0 mm 0 m/S 690 mmHg 62%
    15:00 +1°C° 0 mm 1 m/S 690 mmHg 67%
    16:00 -1°C° 0 mm 1 m/S 690 mmHg 72%
    17:00 -1°C° 0 mm 1 m/S 690 mmHg 72%
    18:00 -1°C° 0 mm 1 m/S 691 mmHg 71%
    19:00 -1°C° 0 mm 1 m/S 691 mmHg 71%
    20:00 -3°C° 0 mm 2 m/S 691 mmHg 71%
    21:00 -4°C° 0 mm 2 m/S 691 mmHg 70%
    22:00 -4°C° 0 mm 2 m/S 691 mmHg 70%
    23:00 -4°C° 0 mm 2 m/S 691 mmHg 69%
    Mehr zeigen